Hamdan Hassan

Recruteur en chef - Al Jazira
20 Nov 2027
Samedi
Processus

Personnalité

Adaptabilité (14) Ambition (11) Controverse (16) Loyauté (6) Pression (13) Professionnalisme (10) Sportivité (16) Tempérament (16)

Profil

Style d'entraînement Démocratique
Diplôme Continental A
Détermination 8
Gestion des joueurs 11
Motivation 13
Discipline 7
Satisfaction professionnelle
100%
Fatigue
0%
Rôle Recruteur en chef
Salaire 85.9K p/s
Contrat 14.03.2030

Performance

Comportement Bon
Efficacité de l'entraînement
31%
Développement des joueurs
30%
Prévention des blessures
65%
Mise en place tactique
30%

Événements récents

A évalué un joueur maintenant
A participé à une réunion de recrutement maintenant
A évalué un joueur maintenant
A évalué un joueur 7j
A évalué un joueur 7j
A évalué un joueur 7j
A évalué un joueur 7j
A évalué un joueur 7j

Suivi en cours

356
Joueur Club Statut Capacité Confiance Observé Dernière observation Dernier vote
Jaime Seoane Al-Faisaly Actif 140 / 145 40% 7 19.11.2027 -
Federico Navarro Rosario Central Actif 125 / 131 40% 4 19.11.2027 -
Joao Ortiz Portland Timbers Actif 111 / 124 40% 2 19.11.2027 -
Gastón Benedetti Estudiantes Actif 132 / 113 40% 7 17.11.2027 -
Oscar Salomón Newell's Old Boys Actif 115 / 112 40% 4 17.11.2027 -
Alisson Shakhtar Actif 133 / 155 40% 2 17.11.2027 -
Artem Bondarenko Shakhtar Actif 132 / 142 40% 1 17.11.2027 -
Terry Devlin Portsmouth Actif 134 / 130 40% 1 17.11.2027 -
Matías Abaldo Defensor Sporting Actif 128 / 123 40% 1 17.11.2027 -
Marco Di Cesare Racing Club Actif 121 / 119 40% 3 15.11.2027 -
Emanuel Coronel Rosario Central Actif 136 / 125 40% 6 15.11.2027 -
Alexis Steimbach Gimnasia La Plata Actif 131 / 133 40% 4 15.11.2027 -
Franco Díaz Temperley Actif 122 / 123 40% 4 14.11.2027 -
Juan Saborido Platense Actif 116 / 121 40% 5 14.11.2027 -
Igor Jesus Los Angeles Football Club Actif 130 / 118 40% 3 14.11.2027 -
Nicolás Fernández Belgrano Actif 138 / 118 40% 5 13.11.2027 -
Antonio Galeano Remo Stars Actif 129 / 133 40% 2 13.11.2027 -
Augusto Schott Talleres Actif 112 / 111 40% 2 13.11.2027 -
Ulises Ortegoza Talleres Actif 137 / 133 40% 5 13.11.2027 -
Ezequiel Cannavo Defensa y Justicia Actif 130 / 118 40% 6 13.11.2027 -
Rick Talleres Actif 130 / 133 40% 1 13.11.2027 -
Franco Ibarra Rosario Central Actif 129 / 120 40% 4 11.11.2027 -
Aslak Fonn Witry Rosenborg Actif 143 / 116 40% 2 11.11.2027 -
Joaquín García Vélez Actif 137 / 136 40% 5 10.11.2027 -
Ignacio Abraham Banfield Actif 132 / 129 40% 2 10.11.2027 -
Tiago Palacios Estudiantes Actif 133 / 138 40% 1 10.11.2027 -
Stefano Moreyra Independiente Rivadavia Actif 116 / 127 40% 1 10.11.2027 -
Omar Al Shamsi CSKA Moscow Actif 140 / 135 40% 6 09.11.2027 -
Rodrigo González Aldosivi Actif 113 / 123 40% 2 09.11.2027 -
Teruki Hara Nagoya Grampus Actif 127 / 113 40% 2 09.11.2027 -
Matheus Thuler Vissel Kobe Actif 125 / 116 40% 2 08.11.2027 -
Fernando Martínez Central Córdoba SdE Actif 118 / 116 40% 5 08.11.2027 -
Gastón Hernández San Lorenzo Actif 134 / 136 40% 5 06.11.2027 -
Eduard Atuesta Orlando City Actif 127 / 122 40% 4 05.11.2027 -
Tomás Escalante Plaza Colonia Actif 112 / 120 40% 2 05.11.2027 -
Hernán de la Fuente Instituto Actif 116 / 119 40% 5 04.11.2027 -
Gonzalo Abrego Godoy Cruz Actif 112 / 121 40% 3 02.11.2027 -
Imanol Machuca Independiente Actif 134 / 130 40% 1 02.11.2027 -
Emanuel Mammana Vélez Actif 133 / 117 40% 4 01.11.2027 -
Emiliano Álvarez Progreso Actif 128 / 117 40% 5 30.10.2027 -
Ulises Sánchez Gimnasia y Esgrima Actif 130 / 132 40% 1 30.10.2027 -
Taher Mohamed Al Ahly Actif 135 / 131 40% 1 30.10.2027 -
Sasha Marcich Lanús Actif 118 / 127 40% 2 28.10.2027 -
Santiago Longo Belgrano Actif 127 / 124 40% 6 28.10.2027 -
Gastón Togni Defensa y Justicia Actif 131 / 124 40% 4 28.10.2027 -
Alan Lescano Argentinos Juniors Actif 135 / 130 40% 2 28.10.2027 -
Damián Fernández Defensa y Justicia Actif 122 / 123 40% 5 26.10.2027 -
Francis Amuzu Grêmio Actif 128 / 142 40% 2 26.10.2027 -
Agustín Cardozo Lanús Actif 130 / 112 40% 1 26.10.2027 -
Franco Watson Lanús Actif 127 / 121 40% 1 26.10.2027 -
Ângelo Hajer Actif 140 / 133 40% 2 25.10.2027 -
Kauã Moraes Cruzeiro Actif 114 / 136 40% 2 25.10.2027 -
Mateo Lisica Dinamo Zagreb Actif 139 / 132 40% 1 25.10.2027 -
Elías Báez Atlanta United FC Actif 128 / 135 40% 2 23.10.2027 -
Aarón Molinas Defensa y Justicia Actif 118 / 136 40% 2 23.10.2027 -
Liel Abada Charlotte Football Club Actif 137 / 145 40% 1 23.10.2027 -
Matko Miljevic Racing Club Actif 121 / 134 40% 1 23.10.2027 -
Aarón Quiros Vélez Actif 123 / 132 40% 1 23.10.2027 -
Martín Ortega Newell's Old Boys Actif 123 / 115 40% 1 23.10.2027 -
Mario Mitaj Al-Ittihad Actif 134 / 132 40% 2 22.10.2027 -
César Pérez Defensa y Justicia Actif 127 / 139 40% 1 22.10.2027 -
Nicolás Vallejo Leon Actif 125 / 125 40% 1 22.10.2027 -
Bruno Leyes Godoy Cruz Actif 128 / 113 40% 2 20.10.2027 -
Felipe Peña Biafore Lanús Actif 129 / 139 40% 2 20.10.2027 -
Mateo Silvetti Inter Miami CF Actif 114 / 122 40% 3 18.10.2027 -
Santiago González Tigre Actif 119 / 136 40% 4 18.10.2027 -
Cătălin Cîrjan Dinamo Bucharest Actif 121 / 125 40% 1 17.10.2027 -
Mihajlo Cvetković Anderlecht Actif 119 / 123 40% 1 17.10.2027 -
Nicolás Giménez Zamalek Actif 130 / 136 40% 3 14.10.2027 -
Marcos López San Martín Actif 125 / 124 40% 3 14.10.2027 -
Lucas Agazzi Defensor Sporting Actif 114 / 110 40% 4 13.10.2027 -
Lucas Carrizo Newell's Old Boys Actif 118 / 116 40% 2 12.10.2027 -
Nicolás Tripichio San Lorenzo Actif 115 / 116 40% 1 11.10.2027 -
Claudio Bravo Argentinos Juniors Actif 111 / 125 40% 2 10.10.2027 -
Patrick Yazbek Nashville SC Actif 125 / 125 40% 1 09.10.2027 -
Martín Garay Tigre Actif 130 / 129 40% 1 08.10.2027 -
César Ibáñez Huracán Actif 136 / 136 40% 2 05.10.2027 -
Nahuel Banegas Tigre Actif 115 / 129 40% 1 03.10.2027 -
Mauricio Amaro Atlanta United FC Actif 123 / 123 40% 1 02.10.2027 -
Nicolás Demartini Temperley Actif 135 / 108 40% 2 30.09.2027 -
Ignacio Vázquez Platense Actif 130 / 125 40% 3 30.09.2027 -
Koffi Kouao Neftchi Actif 115 / 137 40% 1 29.09.2027 -
Facundo Miño Deportivo Riestra Actif 130 / 124 40% 1 28.09.2027 -
Facundo Zabala Independiente Actif 117 / 132 40% 1 28.09.2027 -
Gastón Lodico Racing Club Actif 132 / 138 40% 1 27.09.2027 -
Santiago Montiel Independiente Actif 142 / 140 40% 2 26.09.2027 -
André Luiz Sporting Kansas City Actif 124 / 120 40% 1 26.09.2027 -
Mateo Mendoza Godoy Cruz Actif 133 / 134 40% 3 24.09.2027 -
Gianluca Ferrari Atlético Tucumán Actif 130 / 136 40% 1 24.09.2027 -
Jens Petter Hauge Bodo/Glimt Actif 132 / 124 40% 1 23.09.2027 -
Matías Reali San Lorenzo Actif 130 / 135 40% 1 20.09.2027 -
Imran Oulad Omar Dinamo Batumi Actif 133 / 120 40% 1 20.09.2027 -
Alejo Cruz Juventud Actif 111 / 127 40% 1 20.09.2027 -
Vicente Poggi Godoy Cruz Actif 115 / 118 40% 2 17.09.2027 -
Vinicius Tobias Metalist Actif 145 / 147 40% 2 15.09.2027 -
Jay Robinson Southampton Actif 129 / 133 40% 1 15.09.2027 -
Jherson Mosquera Newell's Old Boys Actif 116 / 111 40% 3 12.09.2027 -
Tomás Chancalay Minnesota United FC Actif 117 / 118 40% 4 11.09.2027 -
Alex Luna Instituto Actif 131 / 138 40% 3 11.09.2027 -
Nahuel Furtado Wanderers Actif 113 / 137 40% 2 09.09.2027 -
Cristian Arango San Jose Earthquakes Actif 118 / 143 40% 4 07.09.2027 -
Nahuel Herrera Penarol Actif 135 / 143 40% 2 07.09.2027 -
Lucas Arce Godoy Cruz Actif 114 / 124 40% 2 05.09.2027 -
Rodrigo Mora Bari Actif 145 / 140 40% 1 05.09.2027 -
Shea Lacey Millwall Actif 124 / 125 40% 1 05.09.2027 -
Francisco González Metilli Belgrano Actif 115 / 113 40% 2 04.09.2027 -
Eduardo Darias Vélez Actif 137 / 117 40% 1 04.09.2027 -
Adryelson Al Wasl Actif 139 / 146 40% 6 01.09.2027 -
Marius Marin Al Nasr Actif 143 / 141 40% 4 31.08.2027 -
Matvey Kislyak Lokomotiv Moscow Actif 138 / 136 40% 1 31.08.2027 -
Kuryu Matsuki Southampton Actif 134 / 137 40% 1 31.08.2027 -
Valentino Lazaro Al Ain Actif 150 / 135 40% 4 29.08.2027 -
Adis Jašić Al Ain Actif 142 / 135 40% 2 29.08.2027 -
Loïc Williams Colorado Rapids Actif 114 / 128 40% 1 29.08.2027 -
Lucas Souto Defensa y Justicia Actif 113 / 128 40% 1 28.08.2027 -
Abdullah Al Shamsi Al Shabab Actif 123 / 117 40% 1 27.08.2027 -
Mehdi Ghayedi Al Nasr Actif 141 / 139 40% 6 26.08.2027 -
Camilo Cándido Nacional Actif 114 / 116 40% 1 26.08.2027 -
Cho Yu-Min Sharjah Actif 128 / 129 40% 1 26.08.2027 -
Kauã Elias Shakhtar Actif 141 / 150 40% 1 26.08.2027 -
Alex Amorim Genoa Actif 128 / 130 40% 1 24.08.2027 -
Frans Krätzig Red Bull Salzburg Actif 130 / 141 40% 1 24.08.2027 -
Jobson Al Dhafra Actif 131 / 131 40% 2 22.08.2027 -
Camilo Cándido Nacional Perdu 134 / 114 40% 1 22.08.2027 -
Medon Berisha Lecce Actif 130 / 129 40% 1 21.08.2027 -
Tomás Silva Platense Actif 124 / 133 40% 1 21.08.2027 -
João Moreira Al Nasr Actif 117 / 133 40% 2 19.08.2027 -
Kurt Zouma Al Wasl Actif 138 / 141 40% 1 19.08.2027 -
Tommaso Barbieri Cremonese Actif 132 / 139 40% 1 19.08.2027 -
Fabio Gerli Modena Actif 133 / 126 40% 2 18.08.2027 -
Franco Cristaldo Talleres Actif 116 / 112 40% 2 17.08.2027 -
Valerio Mantovani Bari Actif 122 / 122 40% 2 17.08.2027 -
Florian Grillitsch Frosinone Actif 146 / 143 40% 2 17.08.2027 -
Khaled Ebraheim Sharjah Actif 117 / 128 40% 2 17.08.2027 -
Marquinhos APOEL Actif 125 / 148 40% 1 17.08.2027 -
Giuseppe Pezzella Cremonese Actif 128 / 130 40% 1 15.08.2027 -
Franck Fomeyem Córdoba Actif 132 / 130 40% 1 15.08.2027 -
Marco Curto Empoli Actif 123 / 132 40% 1 14.08.2027 -
Luan Pereira Sharjah Actif 124 / 121 40% 5 13.08.2027 -
Moussa Diarra Al Wahda Actif 132 / 133 40% 4 13.08.2027 -
Tommaso Augello Palermo Actif 134 / 130 40% 4 13.08.2027 -
Massimiliano Mangraviti Cesena Actif 124 / 118 40% 1 13.08.2027 -
Lorenzo Carissoni Padova Actif 130 / 127 40% 2 12.08.2027 -
Romano Floriani Mussolini Parma Actif 125 / 136 40% 2 11.08.2027 -
Cristian Volpato Sassuolo Actif 140 / 129 40% 1 11.08.2027 -
Mirko Antonucci Cittadella Actif 132 / 116 40% 1 09.08.2027 -
Cameron Brannagan Oxford United Actif 120 / 128 40% 1 09.08.2027 -
Ali Majrashi Al-Ahli Actif 135 / 140 40% 7 08.08.2027 -
Rob Atkinson Bristol City Actif 123 / 126 40% 2 08.08.2027 -
Oumar Ngom Lecce Actif 123 / 121 40% 1 08.08.2027 -
Sondre Auklend Valerenga Actif 117 / 122 40% 1 08.08.2027 -
Sergey Pinyaev Lokomotiv Moscow Actif 132 / 131 40% 1 08.08.2027 -
Saviour Godwin Baniyas Actif 135 / 118 40% 10 06.08.2027 -
Turki Al-Ammar Al-Qadisiyah Actif 131 / 127 40% 7 06.08.2027 -
Maher Carrizo Ajax Actif 125 / 133 40% 1 06.08.2027 -
Denso Kasius AZ Actif 131 / 141 40% 1 06.08.2027 -
Conor Chaplin Leicester City Actif 127 / 137 40% 2 03.08.2027 -
Tomás Conechny Racing Club Actif 126 / 132 40% 4 03.08.2027 -
Giorgos Giakoumakis Zamalek Négociation 129 / 127 40% 1 03.08.2027 -
Federico Bonazzoli Cremonese Actif 140 / 130 40% 2 01.08.2027 -
Adam Buksa Udinese Actif 128 / 131 40% 2 01.08.2027 -
Edwuin Cetré Estudiantes Actif 139 / 116 40% 2 01.08.2027 -
Sam Szmodics Ipswich Town Actif 138 / 132 40% 3 31.07.2027 -
Karim El Berkaoui Al Dhafra Actif 125 / 128 40% 2 31.07.2027 -
Brad Hills Stockport County Actif 125 / 117 40% 1 31.07.2027 -
Casper De Norre Millwall Actif 126 / 117 40% 1 31.07.2027 -
Nicola Pietrangeli Juve Stabia Actif 116 / 120 40% 1 31.07.2027 -
Milton Giménez Defensa y Justicia Actif 116 / 141 40% 1 31.07.2027 -
Daniel Karlsbakk Valerenga Actif 122 / 133 40% 2 30.07.2027 -
Mojmír Chytil Hajduk Split Actif 136 / 148 40% 1 30.07.2027 -
Ignacio Russo Tigre Actif 130 / 132 40% 3 28.07.2027 -
Luciano Gondou Krylya Sovetov Actif 125 / 120 40% 2 28.07.2027 -
Kristian Eriksen Molde Actif 122 / 140 40% 2 28.07.2027 -
Perry Ng Cardiff City Actif 126 / 114 40% 1 28.07.2027 -
Luis Milla Como Actif 156 / 141 40% 1 27.07.2027 -
Mohamed Kanno Al-Hilal Actif 128 / 125 40% 6 26.07.2027 -
Ziyad Al-Johani Al-Ahli Actif 122 / 130 40% 1 26.07.2027 -
Josh Edwards Charlton Athletic Actif 126 / 123 40% 2 25.07.2027 -
Simone Santoro Modena Actif 128 / 129 40% 1 25.07.2027 -
Joël Monteiro Lecce Actif 123 / 123 40% 1 23.07.2027 -
Cristian Olivera Grêmio Actif 131 / 124 40% 1 23.07.2027 -
Matija Frigan Parma Actif 129 / 125 40% 1 23.07.2027 -
Florin Tănase Omonoia Actif 146 / 122 40% 3 22.07.2027 -
Erik Botheim Viking Actif 126 / 138 40% 2 22.07.2027 -
Sory Kaba Al Dhafra Actif 122 / 129 40% 1 22.07.2027 -
Jan Hubocan Ferencvaros Actif 136 / 135 40% 1 21.07.2027 -
Giovanni Simeone Napoli Actif 134 / 134 40% 2 20.07.2027 -
Naïs Djouahra Arouca Actif 127 / 126 40% 4 19.07.2027 -
Rafael Santos Borré River Plate Actif 134 / 138 40% 3 18.07.2027 -
Moussa Dembélé Al Ahli Actif 126 / 129 40% 2 16.07.2027 -
Kortney Hause Bristol Rovers Actif 124 / 124 40% 2 15.07.2027 -
Tomáš Chorý Spartak Moscow Actif 144 / 133 40% 1 15.07.2027 -
Adrián Lapeña Ceuta Actif 119 / 119 40% 1 15.07.2027 -
Charles Pickel Sharjah Actif 139 / 125 40% 6 13.07.2027 -
Miguel Crespo Al-Khaleej Actif 118 / 119 40% 2 13.07.2027 -
Iqraam Rayners Mamelodi Sundowns Actif 122 / 123 40% 3 10.07.2027 -
Marin Benko Zadar Actif 139 / 117 40% 1 10.07.2027 -
Josh Brownhill Al-Shabab Actif 131 / 140 40% 6 09.07.2027 -
Walid Cheddira Avellino Actif 134 / 133 40% 2 09.07.2027 -
Ramón Mierez Al Nasr Actif 126 / 118 40% 2 07.07.2027 -
Lloyd Jones Charlton Athletic Actif 136 / 136 40% 1 06.07.2027 -
Levi Garcia Spartak Moscow Actif 138 / 132 40% 1 04.07.2027 -
Neal Maupay Olympique de Marseille Actif 132 / 133 40% 1 02.07.2027 -
Aschraf El Mahdioui Al-Taawoun Actif 126 / 136 40% 7 30.06.2027 -
Ivan Sergeev Dinamo Moscow Actif 117 / 121 40% 2 30.06.2027 -
Sondre Tronstad Blackburn Rovers Actif 119 / 127 40% 1 30.06.2027 -
Gennaro Borrelli Cagliari Actif 125 / 119 40% 1 30.06.2027 -
Leandro Godoy CSKA Sofia Actif 133 / 134 40% 2 29.06.2027 -
Bruno Barticciotto Talleres Actif 120 / 123 40% 2 27.06.2027 -
Asier Villalibre Racing Santander Actif 129 / 125 40% 2 27.06.2027 -
Paik Seung-Ho Birmingham Actif 121 / 125 40% 1 25.06.2027 -
Adam Armstrong Wolverhampton Actif 137 / 132 40% 2 23.06.2027 -
Simone Trimboli Mantova Actif 122 / 132 40% 1 23.06.2027 -
Mirlind Daku Spartak Moscow Actif 124 / 128 40% 1 21.06.2027 -
Marco Pompetti Padova Actif 122 / 134 40% 2 19.06.2027 -
Adam Gnezda Čerin Al Wahda Actif 123 / 117 40% 1 19.06.2027 -
Oussama Idrissi Ferencvaros Actif 136 / 139 40% 1 19.06.2027 -
Jota Silva Olympiacos Actif 145 / 122 40% 1 17.06.2027 -
Angelo Fulgini Al-Khaleej Actif 127 / 126 40% 3 16.06.2027 -
Farid El Melali CR Belouizdad Actif 120 / 133 40% 4 16.06.2027 -
Sebastián Villa Boca Juniors Actif 120 / 134 40% 1 16.06.2027 -
Sebastián Driussi River Plate Actif 124 / 139 40% 1 16.06.2027 -
Yahya Ben Khaleq Al Ain Refusé 112 / 126 65% 1 04.06.2027 Refuser
Antonio Palumbo Palermo Actif 130 / 124 40% 1 01.06.2027 -
Evgeny Staver Rubin Actif 127 / 129 40% 4 30.05.2027 -
Lorenzo Andrenacci Lumezzane Actif 105 / 119 40% 1 30.05.2027 -
Alen Sherri Cagliari Actif 116 / 125 40% 5 29.05.2027 -
Wilfried Kanga Al-Fateh Actif 128 / 115 40% 1 29.05.2027 -
Lorenzo Palmisani Frosinone Actif 135 / 129 40% 4 27.05.2027 -
Murphy Cooper Plymouth Argyle Actif 114 / 118 40% 5 27.05.2027 -
Alex Bass Peterborough United Actif 117 / 105 40% 4 27.05.2027 -
Gianmarco Vannucchi Benevento Actif 111 / 125 40% 8 26.05.2027 -
George Wickens Lincoln City Actif 118 / 121 40% 4 26.05.2027 -
Josh Keeley Luton Town Actif 135 / 136 40% 2 26.05.2027 -
Alex Palmer Ipswich Town Actif 133 / 134 40% 3 25.05.2027 -
Luca Gemello Perugia Actif 108 / 116 40% 2 25.05.2027 -
Andrea Zaccagno Torres Actif 112 / 108 40% 5 24.05.2027 -
Vladan Kovačević Norwich City Actif 125 / 128 40% 4 24.05.2027 -
Bento Lokomotiv Moscow Actif 141 / 133 40% 17 23.05.2027 -
Alessio Cragno Südtirol Actif 126 / 123 40% 4 23.05.2027 -
Evidence Billiat Ajax Cape Town Actif 112 / 109 40% 2 23.05.2027 -
Domenico Berardi Sassuolo Actif 144 / 136 40% 1 23.05.2027 -
Lucas Bruera Carabobo Actif 119 / 131 40% 3 20.05.2027 -
Josh Murphy Portsmouth Actif 129 / 116 40% 3 20.05.2027 -
Wladimiro Falcone Lecce Actif 133 / 132 40% 3 18.05.2027 -
Felipe Zenobio Tigre Actif 123 / 128 40% 1 18.05.2027 -
Adrian Šemper Al-Fateh Actif 133 / 129 40% 19 17.05.2027 -
Alexandr Koryakin Krasnodar Actif 114 / 101 40% 6 16.05.2027 -
Hugo Moura Al-Fayha Actif 115 / 122 40% 3 15.05.2027 -
Simone Scuffet Pisa Actif 123 / 123 40% 6 15.05.2027 -
Lorenzo Montipò Venezia Actif 143 / 134 40% 7 14.05.2027 -
Helinho Toluca Actif 147 / 126 40% 1 13.05.2027 -
Matteo Francesconi Cesena Actif 128 / 125 40% 1 13.05.2027 -
Samu Maccabi Netanya Actif 119 / 120 40% 1 12.05.2027 -
John Victor Nottingham Forest Actif 139 / 142 40% 1 12.05.2027 -
Relebohile Mofokeng Orlando Pirates Actif 134 / 132 40% 6 11.05.2027 -
Manolo Portanova Reggiana Actif 122 / 131 40% 2 10.05.2027 -
Simone Perilli Hellas Verona Actif 122 / 118 40% 6 09.05.2027 -
Bertrand Traoré Sunderland Actif 139 / 141 40% 1 06.05.2027 -
Enzo Vázquez Central Norte Actif 122 / 108 40% 1 04.05.2027 -
Will Mannion Charlton Athletic Actif 119 / 109 40% 3 03.05.2027 -
Sipho Chaine Orlando Pirates Actif 106 / 105 40% 6 01.05.2027 -
Roberto Ramírez Godoy Cruz Actif 123 / 121 40% 1 01.05.2027 -
Maílson Al-Taawoun Actif 134 / 126 40% 8 30.04.2027 -
Daniel Sappa San Miguel Actif 104 / 117 40% 1 30.04.2027 -
Stefano Gori Union Brescia Perdu 123 / 118 40% 3 27.04.2027 -
Walid Al Menhali Al Ahli Actif 117 / 108 40% 6 25.04.2027 -
Bogdan Ovsyannikov Orenburg Actif 101 / 105 40% 1 23.04.2027 -
Max Conway Bolton Wanderers Actif 118 / 113 40% 1 23.04.2027 -
Leighton Clarkson Blackpool Actif 118 / 124 40% 1 23.04.2027 -
Nicolas Schmid Portsmouth Actif 129 / 129 40% 4 20.04.2027 -
Daniel Iversen Preston Actif 129 / 130 40% 1 20.04.2027 -
Matías Palacios Al Ain Actif 136 / 125 40% 2 19.04.2027 -
Nathan Trott Cardiff City Actif 118 / 119 40% 3 19.04.2027 -
Joe Lumley Sheffield Wednesday Actif 112 / 124 40% 2 19.04.2027 -
Gerónimo Rivera Al Wahda Refusé 128 / 133 40% 2 19.04.2027 Plus d'infos
Egil Selvik Watford Actif 128 / 121 40% 3 15.04.2027 -
Riccardo Gagno Vicenza Actif 129 / 125 40% 1 15.04.2027 -
Max O'Leary West Bromwich Albion Actif 128 / 116 40% 1 12.04.2027 -
Marouan Azarkan Al Nasr Actif 117 / 130 40% 4 10.04.2027 -
Theo Bongonda Al-Faisaly Actif 133 / 140 40% 4 05.04.2027 -
Joel Pereira Reading Actif 105 / 114 40% 2 01.04.2027 -
Giuseppe Di Serio Spezia Actif 125 / 122 40% 1 30.03.2027 -
Agustín Hausch Caracas Actif 120 / 116 40% 1 30.03.2027 -
Ivan Lomaev Ufa Actif 111 / 120 40% 5 25.03.2027 -
Pedro Rebocho Al-Khaleej Actif 121 / 124 40% 2 24.03.2027 -
Svetoslav Vutsov Levski Actif 131 / 124 40% 6 24.03.2027 -
Nikita Haikin Spartak Moscow Actif 142 / 131 40% 9 18.03.2027 -
Predrag Rajković Al-Nassr Actif 149 / 134 40% 5 17.03.2027 -
Peter Leeuwenburgh Apollon Actif 108 / 98 40% 4 13.03.2027 -
Dominik Takáč Slovan Bratislava Actif 134 / 134 40% 6 12.03.2027 -
Angel Zamudio CFR Cluj Actif 124 / 104 40% 5 11.03.2027 -
Alexandr Maximenko Spartak Moscow Actif 116 / 123 40% 7 10.03.2027 -
Camilo Durán Bloemfontein Celtic Actif 128 / 134 40% 2 10.03.2027 -
Armstrong Oko-Flex Levski Actif 110 / 123 40% 3 06.03.2027 -
Marios Siabanis Volos NPS Actif 105 / 109 40% 6 03.03.2027 -
Alexis Guendouz JS Kabylie Actif 101 / 127 40% 4 03.03.2027 -
Williams Mahlangu SuperSport United Actif 105 / 110 40% 3 01.03.2027 -
Brandon Petersen Kaizer Chiefs Actif 110 / 128 40% 1 25.02.2027 -
Alexandr Selikhov Ural Actif 125 / 112 40% 1 13.02.2027 -
Firas Ben Larbi Sharjah Actif 123 / 120 40% 1 10.02.2027 -
Žiga Frelih NK Celje Actif 116 / 119 40% 5 08.02.2027 -
Pedro Rocha Juventude Actif 106 / 122 40% 2 06.02.2027 -
Mateusz Kochalski Qarabag Actif 122 / 116 40% 7 04.02.2027 -
Cristopher Varela Deportivo La Guaira Actif 103 / 110 40% 3 02.02.2027 -
Jordan Lotomba Bloemfontein Celtic Actif 135 / 113 40% 3 01.02.2027 -
Valentin Atangana Al-Ahli Actif 126 / 134 40% 4 29.01.2027 -
Kaku Al Ain Actif 120 / 125 40% 1 29.01.2027 -
Fedor Lapoukhov CSKA Sofia Actif 130 / 107 40% 7 26.01.2027 -
Mahamadou Doumbia Al-Ittihad Actif 126 / 136 40% 2 22.01.2027 -
Vladimir Nazarov Pakhtakor Actif 100 / 108 40% 1 19.01.2027 -
Suleiman Camara Slovan Bratislava Actif 129 / 130 40% 3 09.01.2027 -
Matevž Vidovšek Olimpija Ljubljana Actif 109 / 127 40% 8 07.01.2027 -
Markus Kuster Paralimni Actif 101 / 123 40% 2 05.01.2027 -
Joe Rothwell Sheffield United Actif 124 / 128 40% 1 29.12.2026 -
Ilja Vakhania Krasnodar Actif 119 / 111 40% 1 29.12.2026 -
Kennedy Boateng Al-Fateh Actif 120 / 115 40% 1 27.12.2026 -
Zaydou Youssouf Al-Fateh Actif 135 / 135 40% 4 25.12.2026 -
Julio Alonso Huesca Actif 118 / 120 40% 1 25.12.2026 -
Ondrej Duda CSKA Moscow Actif 139 / 122 40% 2 24.12.2026 -
Hendrik Bonmann Ludogorets Actif 121 / 131 40% 2 22.12.2026 -
Christopher Bonsu Baah Al-Qadisiyah Actif 130 / 117 40% 2 21.12.2026 -
Caio Lucas Al Ain Actif 136 / 122 40% 1 21.12.2026 -
Samuel Kalu Botev Plovdiv Actif 125 / 131 40% 1 20.12.2026 -
Aljaž Ivačič DAC Dunajska Streda Actif 114 / 102 40% 1 14.12.2026 -
Fernando Tapia Club America Actif 123 / 115 40% 1 12.12.2026 -
Peter Olayinka Al-Wehda Actif 115 / 125 40% 1 12.12.2026 -
Ronaldo Vásquez Sumgayit Actif 112 / 101 40% 1 10.12.2026 -
Pablo Lara Pumas UNAM Actif 117 / 114 40% 1 09.12.2026 -
Fabian Bredlow VfB Stuttgart Actif 115 / 125 40% 3 05.12.2026 -
Alejandro Araque Deportivo Tachira Actif 98 / 126 40% 3 27.11.2026 -
Vasco Sousa Porto Actif 122 / 131 40% 1 23.11.2026 -
Daniel Naumov Botev Plovdiv Actif 97 / 107 40% 1 20.11.2026 -
Damián Puebla Orenburg Actif 137 / 113 40% 1 18.11.2026 -
Marius Adamonis AS Trencin Actif 104 / 101 40% 2 13.11.2026 -
Gentian Selmani Teuta Durrës Actif 125 / 116 40% 1 13.11.2026 -
Zelimkhan Bakaev Lokomotiv Moscow Actif 126 / 116 40% 1 10.11.2026 -
Joel Andersson Ludogorets Actif 118 / 110 40% 1 20.10.2026 -
Richard Ludha MFK Skalica Actif 100 / 123 40% 1 09.10.2026 -
Ivo Grbić Ludogorets Actif 107 / 118 40% 1 27.09.2026 -
Musab Al-Juwayr Al-Qadisiyah Actif 120 / 131 40% 1 19.09.2026 -
Samuel Brolin Kalmar FF Actif 102 / 105 40% 2 18.09.2026 -
Bernard Tekpetey Ludogorets Actif 112 / 133 40% 1 12.09.2026 -
Álex Centelles Levski Actif 137 / 121 40% 1 07.09.2026 -
Facundo Altamirano San Lorenzo Actif 110 / 116 40% 1 03.09.2026 -
Luca Philipp TSG Hoffenheim Actif 113 / 112 40% 2 01.09.2026 -
Žan Karničnik NK Maribor Actif 116 / 119 40% 1 23.08.2026 -
Henrik Bjørdal Viking Actif 115 / 119 40% 1 21.08.2026 -
Arnaud Bodart LOSC Lille Actif 124 / 126 40% 2 17.08.2026 -
Jacob Karlstrøm Anorthosis Actif 104 / 117 40% 1 06.08.2026 -
Maro Katinić Sharjah Refusé 103 / 109 62% 1 03.08.2026 Refuser
Lautaro Amadé Defensa y Justicia Actif 103 / 113 40% 1 03.08.2026 -
Jhohan Romaña Leon Actif 113 / 120 40% 1 02.08.2026 -
Mario Hermoso AS Roma Actif 138 / 152 40% 1 02.08.2026 -
Juan Dinenno Pumas UNAM Actif 131 / 139 40% 1 01.08.2026 -
Diego Rossi Monterrey Actif 134 / 123 40% 1 01.08.2026 -